sat.trackr.live / text

‹ back to catalog

HAWK-11C

NORAD 62381 · 2024-247E

PAYLOAD ACTIVE UNKNOWN

§ Identity

Operator
Country
US
Launch date
2024-12-21
Launch site
AFWTR
Launch vehicle
Mass (kg)
RCS (m²)

External: N2YO · Heavens-Above · Gunter

§ Orbital elements

Epoch: 2026-05-24T19:09:04.620096Z

Period
94.12 min
Inclination
45.0051°
Eccentricity
0.0003714
Mean motion
15.29973254 rev/d
Perigee alt
473.3 km
Apogee alt
478.4 km
Semi-major
6,854.0 km
B*
2.0432e-4
RAAN
57.2547°
Arg perigee
76.8953°
Mean anomaly
283.2346°
Rev number
7,942

§ Raw data

HAWK-11C1 62381U 24247E   26144.79797014  .00005743  00000+0  20432-3 0  99922 62381  45.0051  57.2547 0003714  76.8953 283.2346 15.29973254 79427

JSON: /api/v1/satellites/62381 · /tle

For live sub-satellite position, see the globe view (requires WebGL).

§ Visibility from observer

Set your observer location to see the next 7 days of passes ≥ 10°. The values pass through the URL so the page stays shareable.

No JS? Fill the form by hand. The geolocation button needs JavaScript.